EW2202 Weather Reports


Display with metric or nautical units.
time (UTC)temp
F
wind
direction
speed
MPH
gust
MPH
rain 1hr
in
rain 24hr
in
rain mn
in
humidity
%
barometer
mb
20240530074503 52 92 2.0 3.0 0.00 0.02 0.00 82 1015.9
20240530073603 52 96 1.0 5.0 0.00 0.02 0.00 83 1015.8
20240530072703 51 110 0.0 3.0 0.00 0.02 0.00 85 1015.8
20240530071803 52 0 0.0 2.0 0.00 0.02 0.00 86 1015.9
20240530070903 52 111 0.0 2.0 0.00 0.02 0.00 86 1015.7
20240530070003 52 111 0.0 2.0 0.00 0.02 0.00 86 1015.8
20240530065403 52 0 0.0 2.0 0.00 0.02 0.00 86 1015.7
20240530064524 51 0 0.0 2.0 0.00 0.02 0.00 86 1015.8
20240530063624 51 0 0.0 1.0 0.00 0.02 0.00 85 1015.8
20240530062703 51 0 0.0 0.0 0.00 0.03 0.00 85 1015.8
20240530061803 51 0 0.0 0.0 0.00 0.04 0.00 85 1015.8
20240530060924 51 169 1.0 3.0 0.00 0.07 0.00 85 1015.8
20240530060003 51 222 0.0 3.0 0.00 0.13 0.00 85 1015.8
20240530055403 51 222 1.0 1.0 0.00 0.17 0.00 85 1015.8
20240530054503 51 220 3.0 4.0 0.00 0.19 0.00 85 1015.8
20240530053603 52 208 1.0 4.0 0.00 0.20 0.00 85 1015.6
20240530052703 52 207 2.0 1.0 0.00 0.20 0.00 85 1015.5
20240530051803 52 207 2.0 4.0 0.00 0.20 0.00 85 1015.4
20240530050903 52 207 3.0 4.0 0.00 0.20 0.00 85 1015.4
20240530050003 52 209 4.0 5.0 0.00 0.20 0.00 85 1015.3
20240530045403 52 210 4.0 6.0 0.00 0.20 0.00 85 1015.3
20240530044503 52 208 4.0 6.0 0.00 0.20 0.00 84 1015.3
20240530043624 53 208 4.0 6.0 0.00 0.20 0.00 84 1015.2
20240530042703 53 193 4.0 7.0 0.00 0.20 0.00 83 1015.2
20240530041824 53 185 3.0 6.0 0.00 0.20 0.00 82 1015.1
20240530040903 54 153 2.0 5.0 0.00 0.20 0.00 80 1015.0
20240530040003 54 77 2.0 5.0 0.00 0.20 0.00 78 1015.0
20240530035403 54 42 2.0 5.0 0.00 0.20 0.20 79 1014.9
20240530034503 54 13 1.0 4.0 0.00 0.20 0.20 79 1014.9
20240530033624 55 13 0.0 3.0 0.00 0.20 0.20 79 1014.8
20240530032703 55 14 1.0 2.0 0.00 0.20 0.20 77 1014.8
20240530031824 55 15 1.0 2.0 0.00 0.20 0.20 75 1014.7
20240530030924 55 0 0.0 2.0 0.00 0.20 0.20 77 1014.7
20240530030003 55 0 0.0 0.0 0.00 0.20 0.20 79 1014.7
20240530025403 55 15 1.0 1.0 0.00 0.20 0.20 79 1014.8
20240530024503 56 15 1.0 3.0 0.00 0.20 0.20 79 1014.8
20240530023603 56 15 2.0 3.0 0.00 0.20 0.20 78 1014.8
20240530022703 56 14 2.0 4.0 0.00 0.20 0.20 76 1014.8
20240530021824 57 14 2.0 3.0 0.00 0.20 0.20 75 1014.7
20240530020903 57 12 1.0 3.0 0.00 0.20 0.20 74 1014.7
20240530020003 57 9 0.0 2.0 0.00 0.20 0.20 72 1014.7
20240530015403 58 9 0.0 2.0 0.00 0.20 0.20 72 1014.7
20240530014503 58 9 1.0 2.0 0.00 0.20 0.20 71 1014.7
20240530013603 58 9 1.0 2.0 0.00 0.20 0.20 70 1014.5
20240530012703 59 9 1.0 2.0 0.00 0.20 0.20 69 1014.5
20240530011803 59 8 1.0 3.0 0.00 0.20 0.20 68 1014.4
20240530010924 59 5 1.0 2.0 0.00 0.20 0.20 69 1014.4
20240530010024 59 5 2.0 3.0 0.00 0.20 0.20 68 1014.4
20240530005403 59 6 3.0 4.0 0.00 0.20 0.20 68 1014.4
20240530004503 60 12 3.0 5.0 0.00 0.20 0.20 67 1014.3
20240530003603 60 14 3.0 5.0 0.00 0.20 0.20 67 1014.4
20240530002724 61 13 3.0 5.0 0.00 0.20 0.20 67 1014.4
20240530001803 62 48 3.0 4.0 0.00 0.20 0.20 66 1014.3
20240530000903 62 65 3.0 4.0 0.00 0.20 0.20 61 1014.3
20240530000003 62 63 3.0 5.0 0.00 0.20 0.20 59 1014.4
20240529235403 62 47 3.0 5.0 0.00 0.00 0.20 59 1014.4
20240529234503 63 43 3.0 5.0 0.00 0.00 0.20 60 1014.4
20240529233603 62 65 3.0 4.0 0.00 0.00 0.20 56 1014.4
20240529232703 63 36 2.0 5.0 0.00 0.00 0.20 53 1014.4
20240529231803 63 358 2.0 4.0 0.00 0.00 0.20 51 1014.3
20240529230903 63 25 2.0 3.0 0.00 0.00 0.20 50 1014.2
20240529230024 63 33 2.0 4.0 0.00 0.00 0.20 53 1014.2
20240529225403 63 38 2.0 4.0 0.00 0.00 0.20 51 1014.2
20240529224503 63 49 2.0 3.0 0.00 0.00 0.20 52 1014.1
20240529223603 62 61 3.0 4.0 0.00 0.00 0.20 52 1014.2
20240529222703 62 78 4.0 6.0 0.00 0.00 0.20 52 1014.1
20240529221803 62 83 3.0 6.0 0.00 0.00 0.20 53 1014.1
20240529220924 63 18 3.0 6.0 0.00 0.00 0.20 53 1014.2
20240529220003 63 356 4.0 6.0 0.00 0.00 0.20 53 1014.2
20240529215403 63 4 4.0 6.0 0.00 0.00 0.20 55 1014.2
20240529214503 62 360 4.0 7.0 0.00 0.00 0.20 55 1014.1
20240529213603 62 332 4.0 7.0 0.00 0.00 0.20 55 1014.0
20240529212703 62 34 3.0 7.0 0.00 0.00 0.20 55 1014.0
20240529211824 62 41 3.0 5.0 0.00 0.00 0.20 52 1014.1
20240529210903 63 357 5.0 8.0 0.00 0.00 0.20 52 1014.1
20240529210003 63 2 5.0 9.0 0.00 0.00 0.20 52 1013.9
20240529205403 63 11 6.0 9.0 0.00 0.00 0.20 50 1013.8
20240529204503 63 37 7.0 11.0 0.00 0.00 0.20 51 1013.7
20240529203603 63 61 8.0 13.0 0.00 0.00 0.20 49 1013.6
20240529202703 63 59 7.0 13.0 0.00 0.00 0.20 49 1013.6
20240529201803 63 55 7.0 11.0 0.00 0.00 0.20 49 1013.6
20240529200903 63 38 7.0 12.0 0.00 0.00 0.20 46 1013.7
20240529200003 64 24 6.0 11.0 0.00 0.00 0.20 49 1013.7
20240529195403 63 37 6.0 13.0 0.00 0.00 0.20 49 1013.8
20240529194503 63 17 8.0 12.0 0.00 0.00 0.20 53 1013.9
20240529193603 63 353 7.0 12.0 0.00 0.00 0.20 53 1013.9
20240529192703 63 18 6.0 11.0 0.00 0.00 0.20 55 1014.0
20240529191803 63 30 6.0 11.0 0.00 0.00 0.20 55 1014.0
20240529190903 62 31 7.0 15.0 0.00 0.00 0.20 59 1013.9
20240529190003 63 9 6.0 12.0 0.00 0.00 0.20 59 1013.9
20240529185403 63 36 5.0 10.0 0.00 0.00 0.20 59 1013.9
20240529184524 63 34 6.0 7.0 0.00 0.00 0.20 60 1013.9
20240529183603 62 15 6.0 11.0 0.00 0.00 0.20 60 1014.0
20240529182703 62 50 5.0 11.0 0.00 0.00 0.20 64 1014.0
20240529181803 63 44 5.0 10.0 0.00 0.00 0.20 65 1014.0
20240529180903 61 50 7.0 12.0 0.00 0.00 0.20 65 1014.0
20240529180003 62 74 6.0 11.0 0.00 0.00 0.20 66 1014.1
20240529175403 61 80 5.0 11.0 0.00 0.00 0.20 65 1014.1
20240529174503 61 53 7.0 11.0 0.00 0.00 0.20 66 1014.1
20240529173624 61 66 6.0 11.0 0.00 0.00 0.20 64 1014.2
20240529172703 61 80 5.0 9.0 0.00 0.00 0.20 63 1014.2
20240529171803 61 60 6.0 11.0 0.00 0.00 0.20 65 1014.3
20240529170903 61 61 7.0 11.0 0.00 0.00 0.20 65 1014.2
20240529170003 61 66 7.0 12.0 0.00 0.00 0.20 67 1014.1
20240529165403 60 62 6.0 12.0 0.00 0.00 0.20 67 1014.1
20240529164524 61 56 6.0 10.0 0.00 0.00 0.20 66 1014.2
20240529163603 61 52 6.0 11.0 0.00 0.00 0.20 65 1014.3
20240529162703 62 34 6.0 9.0 0.00 0.00 0.20 64 1014.3
20240529160903 62 41 5.0 8.0 0.00 0.00 0.20 62 1014.4
20240529160003 62 64 4.0 9.0 0.00 0.00 0.20 62 1014.3
20240529155403 62 27 4.0 7.0 0.00 0.00 0.20 61 1014.4
20240529154503 61 68 5.0 11.0 0.00 0.00 0.20 62 1014.4
20240529153603 61 71 3.0 11.0 0.00 0.00 0.20 63 1014.5
20240529152703 61 23 4.0 7.0 0.00 0.00 0.20 62 1014.4
20240529151803 60 65 5.0 10.0 0.00 0.00 0.20 63 1014.5
20240529150903 59 68 6.0 11.0 0.00 0.00 0.20 65 1014.4
20240529150003 60 43 5.0 10.0 0.00 0.00 0.20 67 1014.3
20240529145403 60 51 5.0 10.0 0.00 0.00 0.20 67 1014.3
20240529144503 59 55 6.0 10.0 0.00 0.00 0.20 66 1014.3
20240529143603 59 73 5.0 9.0 0.00 0.00 0.20 63 1014.1
20240529142703 59 110 5.0 9.0 0.00 0.00 0.20 63 1014.1
20240529141824 58 104 6.0 10.0 0.00 0.00 0.20 61 1014.2
20240529140903 58 85 6.0 10.0 0.00 0.00 0.20 64 1014.2
20240529140003 59 63 6.0 10.0 0.01 0.00 0.20 68 1014.0
20240529135403 58 87 6.0 11.0 0.01 0.00 0.20 65 1014.0
20240529134503 58 91 8.0 13.0 0.01 0.00 0.20 66 1014.0
20240529133603 58 78 7.0 13.0 0.01 0.00 0.20 65 1014.0
20240529132703 58 78 6.0 11.0 0.01 0.00 0.20 62 1014.1
20240529131803 58 87 7.0 13.0 0.01 0.00 0.20 68 1014.0
20240529130924 58 84 7.0 13.0 0.01 0.00 0.20 68 1013.9
20240529130003 58 77 7.0 11.0 0.00 0.00 0.19 69 1013.9
20240529125424 57 82 8.0 14.0 0.00 0.00 0.19 71 1013.9
20240529124524 57 85 6.0 14.0 0.00 0.00 0.19 79 1013.8
20240529123603 57 82 6.0 12.0 0.00 0.00 0.19 82 1013.8
20240529122724 57 78 7.0 11.0 0.00 0.00 0.19 81 1013.6
20240529121824 57 75 6.0 12.0 0.00 0.00 0.19 80 1013.6
20240529120903 58 76 5.0 10.0 0.00 0.00 0.19 82 1013.6
20240529120003 58 89 5.0 9.0 0.00 0.00 0.19 81 1013.5
20240529115403 58 81 5.0 9.0 0.00 0.00 0.19 81 1013.4
20240529114503 58 86 5.0 9.0 0.00 0.00 0.19 81 1013.3
20240529113603 58 78 6.0 11.0 0.00 0.00 0.19 81 1013.3
20240529112703 57 78 4.0 11.0 0.00 0.00 0.19 85 1013.1
20240529111803 57 71 3.0 9.0 0.00 0.00 0.19 91 1013.0
20240529110903 57 58 2.0 5.0 0.00 0.09 0.19 93 1012.9
20240529110003 57 46 1.0 5.0 0.00 0.19 0.19 94 1012.9
20240529105403 57 49 1.0 4.0 0.00 0.19 0.19 94 1012.9
20240529104503 57 26 1.0 4.0 0.00 0.19 0.19 94 1012.7
20240529103603 57 47 1.0 3.0 0.00 0.19 0.19 94 1012.6
20240529102724 57 5 1.0 4.0 0.00 0.19 0.19 94 1012.6
20240529101803 57 345 0.0 4.0 0.00 0.19 0.19 94 1012.5
20240529100903 57 18 1.0 3.0 0.00 0.19 0.19 94 1012.4
20240529100003 57 12 1.0 3.0 0.00 0.19 0.19 94 1012.3
20240529095403 57 358 2.0 3.0 0.00 0.19 0.19 94 1012.3
20240529094503 57 354 1.0 4.0 0.00 0.19 0.19 94 1012.2
20240529093603 57 10 1.0 4.0 0.00 0.19 0.19 94 1012.1
20240529092703 57 330 2.0 7.0 0.00 0.19 0.19 94 1011.9
20240529091803 57 316 1.0 7.0 0.00 0.19 0.19 94 1011.8
20240529090924 57 326 1.0 4.0 0.00 0.19 0.19 94 1011.8
20240529090003 57 0 3.0 3.0 0.00 0.19 0.19 94 1011.7
20240529085403 57 0 2.0 2.0 0.01 0.19 0.19 94 1011.7
20240529084503 57 0 0.0 2.0 0.01 0.19 0.19 94 1011.6
20240529083603 57 0 0.0 1.0 0.01 0.19 0.19 94 1011.5
20240529082724 57 0 0.0 1.0 0.01 0.19 0.19 94 1011.5
20240529081803 57 0 0.0 1.0 0.01 0.19 0.19 94 1011.5
20240529080903 57 0 0.0 1.0 0.01 0.19 0.19 94 1011.5
20240529080003 57 0 0.0 1.0 0.01 0.19 0.19 94 1011.4
20240529075403 57 0 0.0 1.0 0.00 0.18 0.18 94 1011.4